FENGYUN 1C DEB, 29953

Orbit data source: Space-Track

FENGYUN 1C DEB, 29953 is space debris in SSO originally from a launch on Mon, 10 May 1999 UTC launched from the Taiyaun Space Center, China (TSC). Fengyun 1C debris stems from the Chinese weather satellite Fengyun-1C, which was intentionally destroyed by a Chinese anti-satellite missile in 2007. This event dramatically increased the amount of space debris, with thousands of trackable fragments posing hazards to satellites and human spaceflight. The Fengyun 1C debris cloud has become a focal point in discussions about space sustainability and the need for international regulations to prevent the creation of new debris.

Loading next visibility...
Identifier
29953, 1999-025KB
Orbit
SSO
Country
Flag of CNCN / PRC
Related business
Manufacturer
Unknown
Mission
Spacecraft
Bus & Motor
Unknown
Mass
Unknown
Launch date (UTC)
1999-05-10 (27 years ago)
Launch vehicle
Unknown
Launch site
Taiyaun Space Center, China (TSC)
Object type
Payload
Rocket body
Debris
Shape & HBR
Unknown shape, 0.1 m
Radar Cross Section
Small (<0.1 m²)

Expand to show TLE details & history
Last TLE update: 13 hours ago

TLE from 13 hours ago
0 FENGYUN 1C DEB
1 29953U 99025KB  26138.48205622  .00000180  00000-0  16984-3 0  9992
2 29953  98.9527 124.6621 0105776 198.2787 290.8934 13.90993343980411
Epoch: 2026-05-18T11:34Z
TLE epoch observation values (Epoch: 2026-05-18T11:34:09.657Z)
Latitude
51.18145°
Longitude
-93.8159°
Altitude
906.49 km
Speed
7.417 km/s
True Right ascension
21h 03m 34s
True Declination
51° 01' 00"
Sunlit
Object was in daylight at epoch
Visualization orbit readout
Latitude
Unknown
Longitude
Unknown
Altitude
Unknown
Speed
Unknown
Apparent Right ascension
Unknown
Apparent Declination
Unknown
Sunlit
N/A
Visualization observer readout
Local Sidereal Time
09:25:07
Azimuth
Unknown
Elevation
Unknown
Doppler factor
Unknown
Orbital elements
Apogee altitude
999.582 km
Perigee altitude
845.139 km
Semi-major axis
7,300.497 km
Eccentricity
0.01058
Inclination
98.9527°
RAAN
124.6621°
Arg. of periapsis
198.2787°
True anomaly
289.75571°
Mean anomaly
290.8934°
Eccentric anomaly
290.32508°
Mean motion
3.47948 °/min
Orbital period
103.46 mins
BSTAR
0.00016984
Loading maneuver chart data...
Computing Atmospheric mass density...
Loading historical data...
Loading historical data...
Loading historical data...
Loading historical data...
Loading historical data...
Loading historical data...
Loading historical data...

Documentation

Showing up to 5 results
|